Theta_e
332 328 320 314 314 315 316 316 317 319 320 320 317 315 315 316 316 317 318 320 321 323 324 326 330 332 333 333 334 333 333 332 332 333 334 335 335 334 333 332 332 324 315 314 312 310 308 308 308 310 309 309 310 311 313 314 314 314 316 318 319 319 317 316 315 313 312 312 312 313 314 313 314 313 314 313 313 314 314 314 315 315 316 316 316
330 327 319 313 314 315 316 316 317 319 320 319 317 315 315 317 317 318 319 320 322 323 325 329 331 333 333 334 334 334 333 333 333 334 334 335 335 334 334 333 333 325 315 313 311 309 307 307 308 308 308 310 311 312 312 313 313 314 316 317 317 316 315 314 313 312 312 312 312 313 313 313 313 313 313 314 314 314 314 315 315 316 316 316 316
328 325 316 313 314 316 316 316 318 319 320 318 315 315 316 317 318 319 320 321 323 325 328 331 332 333 334 334 334 334 334 334 334 335 335 335 335 334 334 333 333 327 317 312 311 309 307 307 307 308 309 310 311 311 312 312 313 315 315 315 314 314 313 313 312 312 312 313 313 313 313 313 313 313 314 314 314 314 315 315 315 316 316 316 316
328 324 315 314 315 316 316 316 318 320 320 317 315 315 317 318 319 320 322 324 326 328 331 331 332 333 334 335 335 334 334 335 335 335 336 335 335 335 334 333 332 328 319 313 310 308 307 307 307 308 310 310 311 312 312 313 314 314 314 314 313 313 313 313 313 313 313 313 313 313 313 313 313 314 314 314 314 314 315 315 316 316 316 317 316
333 324 315 314 315 316 316 317 319 320 319 316 314 316 318 320 321 323 325 327 329 331 331 331 332 333 334 334 335 335 335 335 336 336 336 336 336 335 334 334 332 329 321 313 310 309 307 308 308 309 310 311 312 313 313 314 314 315 315 315 314 314 313 314 313 313 313 313 313 313 313 313 313 314 314 314 315 314 315 315 316 316 316 317 316
338 327 316 313 316 316 316 318 319 319 318 315 315 317 320 322 323 325 328 330 331 331 331 332 333 333 334 335 335 335 335 335 335 335 335 335 335 336 335 333 331 328 321 313 310 308 307 308 309 311 312 313 313 314 315 315 316 316 316 316 315 314 314 314 314 313 313 313 313 313 313 313 313 313 314 314 314 314 315 315 315 315 316 316 315
339 333 320 313 316 316 317 319 319 319 317 315 316 320 322 323 325 326 329 331 331 331 331 332 333 333 333 334 335 335 335 335 334 333 332 332 332 334 334 333 332 327 317 312 310 309 308 309 311 313 314 315 316 316 317 317 317 317 316 316 315 314 314 315 314 314 313 313 313 313 313 312 312 312 313 313 314 314 314 315 315 315 315 315 315
339 335 321 313 316 317 319 320 320 319 316 316 319 322 323 324 326 327 329 331 331 331 332 332 333 332 332 333 333 334 334 334 333 331 329 327 327 327 328 331 330 321 312 312 311 309 308 310 313 315 316 317 317 318 319 319 319 319 318 318 317 317 317 317 316 315 314 313 313 313 313 313 312 312 312 313 313 313 314 314 315 315 315 315 315
340 333 319 314 316 318 320 321 320 318 316 318 321 323 324 326 327 328 330 331 331 331 332 332 332 332 332 332 332 332 331 330 328 326 323 320 319 318 319 321 319 313 311 312 311 310 310 312 314 316 317 317 318 319 320 321 322 322 322 321 320 320 320 319 318 316 314 314 313 313 313 313 312 312 312 313 313 313 313 314 315 315 315 315 315
337 327 316 314 316 319 321 321 320 317 317 321 323 325 326 327 328 329 330 330 331 331 332 332 332 332 331 330 329 328 326 323 321 319 316 313 312 311 310 310 310 310 311 312 311 310 311 313 315 316 317 317 319 320 321 323 324 324 324 323 321 321 320 318 317 317 316 316 315 314 315 314 313 313 312 312 313 313 314 314 314 315 315 315 315
332 322 314 315 317 320 322 321 320 319 320 323 325 326 327 328 329 330 330 330 331 331 331 331 330 328 327 325 323 321 320 318 316 313 310 309 308 308 307 308 309 310 311 312 311 311 312 314 316 317 317 317 318 319 322 323 324 324 323 322 321 319 318 317 316 317 318 318 318 317 318 318 317 317 314 312 313 313 313 313 314 314 315 316 316
329 320 314 316 318 321 322 322 321 321 322 325 327 327 328 329 329 330 330 330 330 330 330 329 326 324 322 319 317 315 315 314 311 309 308 308 307 308 308 308 309 310 311 311 311 311 312 314 316 317 317 317 317 319 321 323 324 324 323 322 321 319 318 318 317 317 318 319 320 320 321 322 323 323 316 313 313 313 314 313 314 314 314 315 316
330 319 314 316 319 322 323 322 322 322 324 327 328 328 328 329 329 330 330 330 330 329 328 326 323 320 317 314 312 312 312 310 309 308 308 308 308 308 308 309 309 310 312 311 311 311 311 313 315 316 317 317 318 319 322 323 324 324 324 323 322 321 320 318 319 319 320 320 320 321 321 323 328 326 316 314 315 314 314 315 315 315 315 316 316
331 318 314 317 318 322 323 323 323 324 326 329 329 328 329 329 330 331 331 330 329 328 326 324 320 317 314 312 311 310 310 308 308 308 308 308 308 308 308 309 309 312 312 310 311 311 311 311 312 314 316 317 318 320 322 323 324 324 325 324 324 324 321 320 321 323 325 324 322 322 323 326 331 328 320 321 324 321 316 314 315 316 316 317 317
330 318 314 317 318 321 324 325 325 326 328 330 329 329 329 330 330 331 331 330 329 328 326 322 318 316 314 312 310 309 309 308 308 308 308 308 308 308 309 309 311 313 313 310 311 311 311 311 311 313 315 317 318 319 320 322 323 324 325 326 326 325 324 323 323 327 328 325 326 328 329 330 331 330 327 329 331 329 324 318 315 316 317 317 318
324 317 315 318 318 321 324 326 326 327 329 330 329 329 329 330 331 331 331 331 330 328 325 320 317 316 314 311 310 309 308 308 308 308 308 308 308 308 309 310 311 314 313 310 310 311 311 311 311 312 313 315 317 318 319 321 322 324 325 325 326 327 327 326 326 328 327 326 329 331 331 331 332 331 331 332 331 331 330 325 317 316 318 319 319
318 316 315 317 319 320 324 326 328 329 330 331 329 329 330 331 330 330 331 331 330 328 323 319 317 315 313 310 309 309 308 308 308 308 308 308 308 308 309 310 311 314 313 310 310 311 311 311 311 311 312 312 313 316 318 320 323 324 324 325 326 327 329 329 328 328 326 328 331 332 332 332 331 331 332 332 331 331 331 329 322 318 320 320 320
316 315 315 317 319 321 325 328 329 330 331 330 330 329 330 331 330 330 330 330 329 326 321 318 316 315 313 310 309 309 309 309 309 308 308 308 308 308 309 310 311 313 312 310 310 312 312 312 311 311 311 311 312 314 317 320 321 320 320 324 326 328 331 330 329 329 329 330 331 332 332 331 331 331 332 332 332 331 331 330 326 322 322 321 321
318 315 315 316 319 322 325 327 328 330 330 329 329 329 329 330 330 330 330 330 328 324 320 318 316 314 313 311 311 311 311 311 311 311 310 309 308 308 309 310 311 312 312 311 311 313 312 313 312 312 312 312 312 313 314 316 316 315 319 326 328 329 331 330 330 330 329 330 330 330 331 331 331 332 332 332 332 331 330 329 327 326 324 321 322
320 315 315 316 318 320 321 322 323 326 328 327 328 329 329 330 330 330 330 329 326 323 321 318 315 314 314 313 313 314 314 314 314 313 312 312 310 309 309 310 312 313 313 313 313 313 314 314 314 314 314 314 314 314 315 315 316 316 319 324 326 329 330 331 330 328 328 330 330 330 331 332 332 332 332 332 332 331 330 329 328 329 326 322 323
321 316 314 315 315 316 318 317 319 324 326 326 327 328 329 330 330 331 330 328 325 323 320 317 315 315 316 315 316 316 316 316 318 319 319 318 316 313 310 310 311 313 314 315 315 316 316 316 316 317 317 317 317 318 319 321 321 322 322 322 322 324 328 330 328 327 329 331 331 331 332 332 332 332 332 332 332 331 330 329 330 331 329 326 325
320 318 317 315 314 314 314 315 317 322 323 324 324 326 328 330 330 331 330 328 326 322 318 315 315 317 318 317 317 318 320 323 325 328 328 327 324 320 317 314 312 312 313 314 316 317 317 317 317 317 317 318 318 321 325 327 327 327 327 326 324 324 327 329 329 330 331 331 331 331 331 332 333 333 332 332 331 331 331 331 331 332 332 331 330
324 323 322 320 318 317 315 314 315 318 320 321 322 325 328 329 331 331 330 328 324 319 315 315 316 319 322 321 319 321 326 329 330 331 331 331 330 328 326 324 320 316 313 313 313 315 316 315 314 315 319 322 322 321 325 327 329 329 329 329 328 327 328 329 330 331 331 330 330 330 331 332 333 332 332 331 331 332 332 332 332 332 332 332 332
328 327 326 325 324 322 320 318 316 316 317 318 320 324 327 329 331 331 328 324 318 315 315 318 319 322 326 326 324 326 330 331 332 332 332 332 332 331 331 330 329 326 323 320 319 319 320 319 316 319 326 328 327 325 325 327 328 329 330 331 331 330 329 329 330 331 332 331 331 331 332 332 332 332 332 332 333 333 333 332 332 332 332 332 332
329 329 328 328 327 326 325 323 320 317 318 317 318 321 326 329 331 331 325 319 316 317 318 322 325 326 329 329 328 330 332 332 332 331 332 333 332 332 333 332 332 332 331 330 329 328 328 325 323 326 329 329 330 329 328 328 329 330 331 332 333 332 331 330 330 330 331 331 331 331 331 331 331 332 332 333 333 333 333 332 332 332 332 331 331
330 331 330 330 330 330 329 327 324 320 319 318 317 319 324 328 330 330 324 318 318 321 322 324 327 328 330 330 330 332 332 332 332 331 331 332 332 333 333 333 333 332 333 333 332 332 331 330 329 329 330 330 331 331 331 330 330 331 332 332 333 333 333 332 332 332 331 331 331 331 330 331 332 332 333 333 333 333 333 332 332 332 332 332 331
331 331 331 332 331 332 330 329 327 323 320 319 319 318 322 327 330 329 324 321 321 322 325 325 325 329 330 330 331 332 332 332 332 332 331 332 333 333 332 333 334 333 332 332 332 332 332 332 332 332 332 332 332 332 332 331 331 331 332 332 333 333 332 333 333 333 332 332 332 332 332 332 332 333 333 333 333 333 332 332 332 332 332 332 331
332 332 332 332 332 332 332 331 330 327 324 321 319 318 322 328 329 327 325 326 326 326 328 327 325 328 330 330 331 332 334 334 333 333 332 333 333 332 332 333 333 333 333 332 331 331 332 332 332 332 332 332 332 332 332 332 332 332 332 332 332 332 332 333 333 333 333 332 332 333 333 333 333 333 333 334 334 333 333 333 333 332 332 331 331
333 333 333 333 334 334 334 334 333 332 329 324 319 318 323 328 327 325 326 329 330 329 328 327 326 327 330 330 331 333 334 334 334 334 334 333 332 332 332 332 332 331 332 332 331 331 330 331 331 331 331 331 332 333 333 333 333 333 333 332 332 332 332 332 332 332 332 332 332 333 333 333 332 332 333 334 334 334 334 333 333 332 332 332 331
334 334 334 335 336 336 337 337 333 330 331 327 319 318 324 327 325 324 326 329 331 328 324 325 326 327 329 331 331 333 333 333 334 334 334 333 332 331 331 332 331 330 331 331 330 330 330 329 329 329 330 330 331 331 332 332 332 332 331 331 332 331 331 330 329 330 332 332 332 332 332 332 332 332 333 333 334 334 334 334 333 332 332 332 332
336 335 335 337 338 338 338 336 330 324 327 326 317 318 325 326 323 323 327 330 330 328 323 323 327 328 329 330 332 333 333 333 333 333 333 333 332 332 331 332 331 330 330 330 329 329 329 329 329 329 330 330 331 331 331 331 331 330 329 329 330 330 330 330 330 330 331 331 331 331 331 331 331 331 332 332 333 333 333 332 333 333 333 332 332
337 337 338 340 339 338 337 334 329 322 321 319 315 320 325 324 322 324 329 331 330 328 324 324 327 329 329 330 333 334 333 332 333 333 333 333 333 332 331 331 331 330 328 328 328 329 329 330 331 331 331 332 332 332 331 331 330 330 330 330 330 330 330 330 330 331 331 331 331 331 331 331 331 331 331 332 332 332 332 332 333 333 332 332 331
340 340 340 341 339 338 336 333 330 326 320 316 316 321 323 323 324 327 331 332 329 328 327 328 330 330 330 332 334 333 333 333 334 333 333 333 333 332 331 331 330 329 328 328 328 329 329 330 331 332 332 332 332 331 330 330 329 329 329 329 330 330 330 330 330 330 330 330 331 331 331 331 330 330 330 331 331 332 332 333 332 332 332 331 330
341 341 341 340 339 337 335 332 331 330 326 322 321 322 324 327 329 330 333 333 331 330 330 331 332 331 331 334 334 332 333 334 334 334 333 333 332 331 330 330 330 330 329 329 329 330 330 330 330 331 331 331 330 330 328 328 327 327 328 328 329 330 330 329 328 328 329 329 330 330 330 330 328 328 329 329 330 331 332 332 331 331 331 330 329
341 340 340 340 339 337 335 333 332 331 330 329 328 328 330 332 333 333 334 334 332 332 333 333 333 332 333 334 333 332 333 334 334 334 334 334 332 331 331 331 332 331 330 330 330 330 330 329 329 329 330 330 330 329 328 327 327 327 327 328 330 330 330 328 328 328 328 329 329 330 330 329 328 328 328 329 329 330 332 332 331 332 331 330 330
341 340 340 338 338 337 335 334 333 332 331 331 332 332 333 334 335 335 335 335 333 332 334 334 334 334 334 333 333 332 332 333 333 333 333 333 333 332 332 332 332 331 331 331 331 331 330 330 329 329 330 330 330 329 328 327 327 327 327 328 330 330 329 328 328 328 328 329 330 331 331 330 330 330 330 330 330 331 332 333 333 332 331 331 331
340 339 339 338 337 336 336 335 334 333 332 332 332 332 333 334 335 335 335 335 334 333 334 334 334 334 334 333 333 332 332 332 331 332 333 332 332 331 331 332 332 331 331 332 331 331 331 331 331 330 330 330 329 329 327 326 326 327 328 329 330 329 328 328 328 327 328 329 331 332 332 331 332 332 332 330 330 331 332 333 333 333 332 331 331
338 338 337 337 336 335 335 335 334 334 333 333 332 332 333 334 335 335 335 334 334 334 334 334 334 334 333 333 332 331 331 331 332 332 331 332 331 331 332 332 332 332 331 331 331 330 330 331 331 330 330 330 329 328 326 325 325 326 327 329 330 330 329 328 328 328 329 330 331 331 332 333 333 332 331 330 330 330 331 331 332 331 331 330 330
336 336 337 336 335 335 334 334 334 334 334 333 333 333 334 334 334 335 334 333 333 334 334 334 334 334 333 332 331 331 332 332 333 333 332 332 331 331 331 331 330 330 330 330 330 330 330 330 330 330 330 330 329 328 326 324 324 324 325 327 328 328 328 328 327 328 329 330 330 331 331 332 332 330 329 329 329 329 329 330 330 330 329 329 329
335 336 336 335 334 334 333 333 333 333 332 332 333 333 334 334 334 335 334 333 334 334 334 334 334 334 333 332 331 331 332 333 334 333 332 331 330 330 330 329 328 328 329 330 330 330 330 330 330 330 330 330 329 328 326 324 323 323 322 325 326 327 327 327 327 327 328 329 329 330 330 331 330 328 328 328 328 328 328 328 328 328 328 327 327
334 335 335 333 333 333 333 333 333 333 331 332 334 334 334 335 335 335 335 334 335 335 334 334 334 333 332 332 332 332 333 333 333 332 331 330 330 330 329 328 328 328 329 329 329 330 330 329 329 329 329 329 328 327 325 324 322 320 320 321 322 323 324 325 326 327 328 328 328 328 328 328 328 327 326 326 326 326 326 326 326 326 326 326 326
334 334 333 332 333 333 334 334 334 332 331 332 334 335 335 335 335 335 335 335 335 335 334 334 334 333 333 333 333 333 333 333 333 332 331 331 331 330 330 329 329 329 329 329 330 330 329 329 329 328 327 327 326 325 323 321 319 318 316 316 317 319 321 324 326 328 328 328 327 326 325 324 324 323 322 321 321 321 322 323 323 323 324 325 325
333 334 333 332 333 333 334 334 334 334 333 334 335 335 336 336 335 335 334 335 335 334 333 333 334 333 333 333 333 333 333 332 332 332 332 332 331 330 330 329 329 329 329 329 329 329 329 329 328 326 325 324 324 322 319 317 315 314 314 314 316 317 320 323 325 324 324 325 325 323 321 318 315 313 313 312 312 312 313 315 317 318 320 322 323
334 334 334 333 333 334 334 334 334 334 335 335 335 335 336 335 335 335 335 335 334 334 334 333 333 333 332 333 333 333 332 331 332 333 332 331 330 330 329 329 329 329 328 328 328 328 328 326 323 321 320 319 318 316 315 313 313 312 313 313 314 314 316 318 317 317 319 319 319 316 313 309 306 304 304 304 304 304 303 304 307 309 312 314 317
334 335 335 334 334 334 334 334 334 334 336 335 334 335 335 334 335 335 335 334 333 333 333 333 332 331 332 332 332 332 331 331 332 332 331 330 329 329 329 328 328 328 328 327 328 327 324 321 318 316 315 314 313 312 311 311 311 311 311 312 313 314 314 313 312 314 316 313 312 310 306 303 301 301 301 300 300 299 299 299 300 301 303 304 305
335 335 336 334 334 335 334 334 334 334 335 334 334 335 334 333 333 333 334 333 332 332 332 332 331 331 332 332 331 331 331 331 331 330 329 328 328 328 327 327 327 327 327 326 325 322 319 316 315 313 312 311 310 310 309 309 309 310 310 310 310 311 311 309 309 310 310 307 307 305 302 301 300 300 299 299 299 298 298 298 298 298 298 298 299
335 336 336 335 334 335 335 335 335 335 335 335 334 335 334 333 333 332 332 332 332 332 331 331 332 331 331 331 330 330 329 328 327 327 326 326 326 326 326 327 326 325 324 323 320 317 314 313 311 310 310 309 308 307 306 306 307 307 307 306 306 307 307 306 306 305 304 304 303 302 300 300 299 299 299 298 298 298 298 297 297 297 297 297 297
336 336 336 336 335 334 335 336 335 335 335 334 335 334 333 333 333 333 333 333 332 331 331 331 331 330 329 329 328 328 326 325 324 324 324 324 324 325 325 324 322 320 319 317 314 312 311 310 309 308 307 305 304 304 303 303 303 303 304 303 304 304 304 304 304 303 301 301 301 301 300 300 298 298 298 297 297 297 297 297 297 297 297 297 297
336 336 336 336 335 335 336 336 335 335 334 334 334 333 333 333 333 333 332 333 333 331 330 330 330 329 327 327 326 325 323 322 321 322 323 323 323 324 322 320 317 315 313 311 310 309 308 307 306 305 303 302 302 301 301 301 301 301 301 302 302 302 302 302 301 300 299 299 300 300 300 300 300 298 297 297 297 297 297 296 296 296 296 297 297
336 336 336 335 335 335 335 335 335 335 334 334 333 332 333 333 333 332 332 332 331 330 330 330 329 327 326 324 323 322 320 319 320 320 321 321 321 319 317 314 313 311 310 308 307 305 304 303 302 301 301 301 300 300 300 300 300 300 300 300 300 300 300 300 299 298 298 297 298 298 299 299 299 298 297 297 296 296 296 296 296 296 296 297 297
336 335 335 335 335 335 335 335 335 335 334 334 333 333 332 333 332 332 332 331 330 330 330 329 328 326 324 322 321 320 319 319 318 319 318 318 316 314 312 311 310 308 307 306 304 303 302 301 300 300 300 300 300 300 300 299 300 300 300 299 299 298 298 297 297 297 297 296 297 297 297 297 298 298 297 296 296 296 296 296 296 296 297 297 297
Wind_Speed
20 17 15 16 14 14 15 17 17 17 16 15 15 14 14 14 14 14 14 13 12 12 11 10 10 10 11 11 11 11 11 10 10 10 10 10 9 8 8 8 9 10 11 9 8 7 7 8 9 9 10 11 13 14 14 14 15 16 17 18 17 16 16 16 15 15 15 15 14 14 14 14 13 13 12 12 12 12 12 14 14 14 14 14 14
23 19 17 16 15 16 16 17 18 17 17 16 16 15 15 14 14 14 14 13 12 11 11 10 10 10 11 11 11 11 10 10 9 10 10 9 8 7 8 8 9 10 12 10 9 9 9 11 11 11 12 13 15 16 16 16 17 18 18 18 17 17 16 16 15 15 15 15 14 14 14 13 13 12 12 12 12 12 12 13 13 14 14 14 14
22 20 18 17 16 17 18 18 18 17 17 17 16 16 15 15 15 14 14 13 12 11 11 10 10 10 11 11 10 10 10 9 9 9 9 9 8 8 8 9 9 9 11 10 9 10 11 13 13 13 14 15 16 17 18 18 18 18 18 17 17 17 16 16 15 15 15 15 14 14 13 12 12 11 11 11 12 12 11 12 13 14 15 15 14
19 18 18 18 18 18 19 19 18 18 17 17 17 17 16 15 15 14 13 13 12 11 11 10 10 10 10 10 10 10 9 9 9 9 9 8 8 8 8 9 9 8 10 11 9 10 12 14 14 14 15 16 17 18 18 18 18 18 17 17 17 16 16 15 15 15 15 14 14 14 13 13 12 10 10 10 11 11 12 12 13 14 15 16 16
18 16 16 17 18 19 20 19 19 18 18 18 18 17 16 15 15 14 13 13 12 11 11 10 10 10 10 10 10 9 9 9 8 8 8 8 7 8 7 8 8 7 9 10 9 10 13 15 15 16 17 17 18 18 18 18 18 17 17 16 16 15 15 15 14 14 14 14 14 14 14 14 13 12 11 11 12 13 13 13 14 15 16 17 17
17 15 15 16 18 20 20 20 19 19 18 18 18 18 16 15 14 14 13 13 12 11 10 10 10 9 9 9 9 9 9 8 8 8 8 7 7 7 6 6 5 4 8 9 9 11 14 16 17 18 18 18 18 18 18 18 17 16 16 15 14 14 14 14 14 14 14 14 13 13 14 14 14 13 12 12 13 15 15 15 15 15 16 16 16
16 15 15 16 17 20 21 20 19 19 19 19 19 18 16 15 14 13 13 13 12 11 10 10 9 8 8 8 8 8 8 8 7 7 6 5 5 5 4 3 3 4 7 8 9 11 14 17 18 19 19 19 18 18 17 17 16 15 14 13 13 12 13 13 12 12 12 12 12 13 14 14 15 14 13 13 14 15 16 16 16 15 15 15 15
16 15 16 17 18 19 21 20 20 20 19 19 19 17 16 14 14 13 13 13 12 11 10 9 9 8 7 7 7 7 7 6 5 4 4 3 2 2 1 2 2 4 6 8 9 11 15 17 19 20 19 19 18 18 17 16 15 13 12 11 11 10 11 11 10 10 10 10 11 13 14 15 16 15 14 14 14 15 15 15 16 16 15 15 14
17 16 17 18 19 20 20 21 20 20 20 20 19 17 15 14 14 13 13 12 12 11 10 9 8 7 7 6 6 5 5 4 3 2 2 1 1 1 1 1 1 3 5 9 9 11 15 17 18 19 19 18 17 17 16 15 14 12 11 9 8 8 9 9 8 8 8 9 11 12 13 15 16 15 14 13 14 14 15 15 16 17 16 15 14
18 18 19 19 20 20 20 20 20 20 20 20 18 17 15 14 14 13 13 12 11 10 10 9 8 7 5 5 4 4 3 2 2 2 2 2 2 2 2 2 1 3 8 10 11 12 16 17 18 18 17 17 16 15 15 14 13 11 9 7 6 6 7 8 8 7 6 7 9 11 13 14 16 16 15 14 14 14 15 15 16 17 17 16 15
19 19 20 20 21 21 21 20 20 20 20 20 18 16 15 14 14 13 13 12 11 10 9 8 7 6 4 4 3 3 3 2 2 3 4 4 4 4 4 3 3 6 9 12 12 13 16 17 17 17 16 15 14 14 13 12 11 10 8 6 4 4 5 6 7 6 5 6 8 10 12 13 15 16 16 15 14 14 15 16 16 16 16 16 16
20 20 21 21 22 22 21 21 21 21 20 20 17 16 15 15 14 13 12 11 11 9 9 7 6 5 4 4 3 3 3 3 4 4 5 5 6 5 4 4 4 7 10 12 13 13 16 17 17 16 15 14 13 12 12 11 10 8 7 5 3 3 3 4 5 5 5 6 8 10 11 13 16 17 17 16 15 15 15 16 16 16 16 16 15
20 21 22 22 23 22 22 21 21 21 20 19 17 16 15 15 14 13 12 11 10 9 8 7 5 5 4 4 4 4 5 5 5 5 6 6 6 5 5 5 5 7 10 13 13 14 15 15 16 15 14 13 12 12 11 10 9 8 6 4 2 2 3 4 5 6 6 7 8 10 11 13 16 17 17 18 17 17 17 16 17 17 17 16 16
20 22 22 23 23 22 22 22 21 21 20 19 17 16 15 14 13 12 11 10 9 8 7 6 5 5 5 5 5 5 6 6 6 6 6 6 6 6 6 5 5 7 10 12 13 13 14 14 14 14 13 12 12 11 10 9 8 7 6 4 1 1 3 5 6 6 6 7 9 11 12 13 15 17 17 18 19 20 19 18 18 17 17 17 16
19 22 23 23 23 23 22 21 22 21 20 19 17 16 15 14 13 12 11 10 9 7 6 5 5 5 5 5 5 6 7 7 7 6 7 7 7 6 6 6 6 7 9 12 13 13 13 13 13 13 13 12 11 10 9 8 7 6 5 3 2 1 3 5 5 6 6 7 9 10 11 13 14 16 17 18 19 20 20 20 19 17 17 17 17
19 21 22 23 22 23 22 22 21 21 20 18 17 16 15 14 13 12 11 9 8 6 5 5 5 6 6 6 6 6 7 8 8 7 7 7 7 6 6 6 7 7 9 11 12 12 13 13 12 12 12 11 10 9 8 7 7 6 5 4 3 2 3 4 6 6 6 7 9 9 10 11 13 15 16 17 19 19 20 20 19 18 17 18 18
20 20 21 22 22 22 22 22 21 20 19 18 17 16 15 14 13 12 10 9 7 6 5 5 6 6 6 6 6 7 8 8 9 8 8 7 7 6 6 6 7 8 9 10 10 11 11 11 11 11 11 10 10 9 9 8 7 6 5 4 4 4 3 4 5 6 6 7 8 9 9 10 12 14 15 17 18 20 20 20 19 17 18 20 20
20 20 21 21 22 22 22 22 21 20 19 18 17 16 15 14 13 12 10 9 7 6 6 6 6 6 6 6 7 7 8 9 9 9 8 8 7 6 6 6 6 7 8 9 9 9 10 10 10 10 10 10 9 9 9 8 7 6 5 5 5 5 4 4 5 6 7 8 9 9 9 10 12 14 14 16 18 20 21 21 20 18 20 21 20
20 21 21 21 22 22 22 21 20 20 19 18 17 17 15 14 13 12 11 9 8 7 6 6 6 7 7 7 7 8 9 9 9 9 8 8 8 7 6 6 6 7 8 8 8 7 8 8 8 8 8 8 8 8 8 7 6 5 5 6 6 6 5 5 5 7 9 9 9 8 9 10 11 13 14 16 18 20 21 21 20 20 20 19 18
20 21 20 21 21 21 20 19 19 19 19 18 17 17 15 14 13 12 11 9 8 7 6 6 7 8 8 7 7 8 8 9 10 9 8 8 8 8 7 6 6 7 7 7 6 6 5 5 6 6 6 6 6 6 6 5 5 4 4 6 7 7 6 6 6 8 10 9 8 9 10 11 12 13 15 17 19 20 21 21 20 20 19 18 17
21 20 19 19 19 19 18 18 19 19 18 18 17 17 15 14 13 12 11 9 8 7 6 7 8 9 8 8 8 8 8 9 10 9 9 8 7 8 7 7 6 6 6 5 5 4 4 4 4 4 3 3 4 5 5 4 4 3 3 3 5 6 6 6 7 8 9 9 9 10 11 12 13 14 17 18 20 21 22 21 20 19 19 18 17
21 21 19 18 18 18 17 17 19 19 18 17 16 16 15 15 13 11 10 9 8 8 8 10 10 10 9 8 8 7 8 8 8 9 8 7 6 7 7 6 6 5 5 5 4 4 4 3 3 3 3 3 4 6 6 4 3 2 1 1 2 3 4 4 5 6 7 8 9 10 11 12 14 16 18 19 20 22 22 22 21 20 20 19 18
22 22 20 19 18 18 17 17 18 17 17 16 15 16 16 14 12 11 10 9 9 9 10 11 11 10 9 8 8 8 7 6 6 7 7 7 6 5 5 5 5 5 5 4 4 4 4 4 4 4 4 3 4 7 7 4 2 2 1 2 2 2 4 4 5 5 7 8 9 10 11 12 14 16 18 20 21 21 22 23 22 21 20 20 20
25 23 23 21 20 19 18 17 17 16 16 16 15 16 16 14 12 11 9 9 10 11 12 11 11 10 8 7 7 7 6 4 4 4 5 6 6 5 4 4 4 5 5 5 4 4 3 3 4 5 4 3 3 5 6 5 4 2 2 3 3 4 5 6 6 6 7 9 9 10 11 13 14 16 18 20 21 21 22 22 21 20 20 20 20
26 24 24 23 22 21 19 19 18 17 16 15 15 16 16 15 13 11 10 11 12 12 12 11 10 9 8 7 7 6 5 4 3 3 4 5 5 4 4 3 3 3 4 4 4 4 4 3 4 4 4 3 3 3 4 5 4 3 3 4 5 5 6 7 8 8 9 10 11 12 13 14 15 16 19 21 21 21 21 21 19 20 20 20 20
27 26 25 24 23 22 20 20 19 17 16 15 15 15 16 16 14 12 11 12 12 12 11 11 10 8 7 7 6 5 4 4 3 3 3 3 3 3 3 2 2 2 3 3 2 3 3 4 4 4 4 4 4 4 5 5 5 4 4 6 7 7 7 7 8 9 9 10 11 13 14 15 16 18 20 21 21 20 19 19 18 19 19 19 19
29 27 25 24 23 22 21 20 19 18 17 16 15 14 16 16 15 13 13 12 11 10 9 9 8 7 6 6 5 4 3 2 2 3 2 2 2 2 2 2 2 2 3 3 2 3 3 4 5 5 5 5 5 5 6 7 7 6 6 8 9 10 9 9 10 10 10 10 11 12 13 15 16 18 19 20 20 18 16 17 18 18 18 18 18
29 27 26 25 24 23 21 21 20 19 18 18 16 15 16 17 16 15 14 12 11 9 8 8 9 7 5 4 3 1 0 1 0 1 2 2 3 3 2 2 2 3 3 3 3 3 4 5 5 6 6 5 6 6 7 8 8 8 9 10 11 12 12 12 13 12 12 13 12 12 13 15 16 16 17 18 19 16 14 15 17 18 18 17 17
29 27 26 25 23 22 21 20 19 19 19 19 17 16 17 17 17 16 15 14 11 10 9 10 10 8 5 3 2 2 3 3 2 1 2 2 3 3 3 2 2 3 3 3 2 2 3 3 4 4 4 5 6 8 8 9 10 11 12 13 13 14 14 14 15 14 14 14 14 13 14 16 16 16 17 17 17 15 14 15 16 16 16 15 16
28 27 26 24 23 22 20 19 18 18 19 19 18 18 19 18 17 17 15 14 12 10 9 10 9 6 4 3 4 5 6 6 4 4 4 3 2 3 3 2 2 3 3 3 2 3 3 3 3 4 5 6 7 9 9 9 10 11 12 13 14 15 15 15 15 14 14 14 14 14 15 16 16 16 17 17 18 17 16 16 16 16 16 16 15
28 28 26 24 22 21 20 18 17 17 18 19 20 20 20 18 17 16 15 13 12 10 8 9 6 4 5 5 6 8 8 6 5 6 5 4 4 4 4 3 3 4 4 4 3 4 4 4 5 5 6 6 8 9 9 9 10 10 11 12 13 13 14 14 14 14 13 13 13 14 15 15 15 15 16 16 17 17 16 16 16 16 15 16 16
28 27 25 24 23 20 19 18 18 17 18 20 21 21 19 18 17 15 14 12 10 8 7 6 5 6 7 8 9 9 8 8 7 7 6 5 6 6 5 5 4 4 4 4 4 4 4 5 5 6 7 8 9 10 10 11 11 11 11 11 12 12 13 13 13 13 13 13 13 13 13 13 13 13 14 14 14 15 15 14 14 15 14 14 16
27 26 24 24 23 20 19 19 19 18 18 19 20 20 19 17 16 14 12 10 8 7 6 5 6 8 9 9 10 9 9 9 8 8 7 7 8 8 7 6 5 5 4 5 5 4 5 6 6 7 8 9 10 11 12 12 12 12 12 12 12 12 13 13 13 13 13 13 12 11 10 10 10 10 10 10 10 10 10 11 11 13 13 11 11
25 25 25 25 24 22 21 20 19 18 17 18 19 19 19 17 14 11 9 8 7 6 7 7 8 9 10 10 10 9 9 9 10 10 9 8 8 8 6 5 5 5 5 5 6 6 6 7 8 9 10 11 12 13 13 13 13 13 13 13 12 12 12 12 13 13 12 11 11 9 8 8 9 9 9 8 8 9 9 10 11 13 13 11 10
24 25 25 25 24 22 21 20 19 19 18 18 17 17 15 14 11 9 9 10 9 8 9 9 9 10 11 11 10 10 10 11 12 11 10 9 8 7 6 5 5 6 6 6 7 7 8 9 10 10 11 12 12 14 14 14 13 13 13 12 12 12 12 12 12 11 10 10 9 9 8 8 8 8 9 9 9 9 10 12 14 14 13 13 12
25 25 25 25 24 22 21 20 19 18 19 17 16 14 11 11 10 10 12 12 12 11 10 11 10 11 11 12 11 11 11 11 11 10 10 9 8 7 6 6 6 7 7 7 8 9 10 11 11 12 12 13 13 14 14 15 14 13 13 12 12 12 13 12 12 11 10 9 9 9 9 9 9 9 10 11 11 11 12 14 16 16 15 15 15
25 25 25 25 23 22 20 19 19 17 18 17 15 13 11 12 13 13 15 15 14 13 12 12 12 12 13 13 12 11 11 10 10 10 10 8 7 7 7 7 7 8 8 9 9 10 11 12 13 13 14 15 15 15 15 14 14 12 11 11 11 13 13 13 13 12 11 10 10 10 11 10 11 11 12 12 13 13 14 15 16 16 16 17 16
25 25 24 24 22 21 20 19 18 17 16 16 15 14 14 15 15 16 16 16 15 15 14 14 13 13 13 12 11 11 10 9 9 9 8 7 7 8 8 8 8 9 10 11 11 11 12 13 14 16 16 16 17 17 16 15 13 12 10 10 11 13 14 14 13 12 11 11 11 11 11 12 12 12 12 12 12 13 14 15 16 16 16 17 17
25 25 24 23 22 22 21 20 20 18 17 17 17 17 17 17 16 17 17 16 16 15 15 14 13 13 12 11 11 11 9 8 8 8 8 8 9 9 9 10 10 11 12 12 13 13 13 14 15 16 17 18 18 19 19 18 16 14 13 12 13 14 14 14 13 13 12 11 10 10 11 12 12 11 12 12 11 12 14 15 16 17 17 16 16
24 24 24 23 24 24 22 21 21 20 19 20 19 19 19 18 17 17 18 18 17 16 15 13 12 12 12 11 11 11 10 9 9 8 9 10 11 11 11 12 12 13 13 13 13 13 14 15 16 17 18 19 20 21 22 21 20 18 17 15 14 14 14 14 14 13 12 11 10 10 11 11 12 12 12 12 12 12 13 14 15 16 16 16 15
23 23 23 24 24 23 21 21 20 20 21 21 20 19 20 18 18 19 19 19 17 15 14 12 12 12 12 11 11 11 11 10 10 10 11 12 12 13 13 13 14 14 14 14 14 15 16 17 18 19 19 20 21 22 23 22 22 20 17 14 13 13 13 13 14 14 12 11 11 10 11 12 13 14 14 15 15 15 15 15 15 15 16 16 15
23 23 23 24 24 22 21 21 19 19 21 21 19 19 18 18 19 20 20 19 17 14 13 12 12 13 12 11 11 12 12 12 12 12 13 13 13 14 14 15 15 16 16 17 17 17 18 19 20 21 21 22 22 23 23 22 21 20 18 15 11 10 10 11 13 14 13 12 12 12 13 14 16 17 17 18 18 18 18 17 17 17 18 19 19
23 24 24 23 23 22 21 22 20 19 20 19 18 18 18 18 18 19 19 18 16 14 13 13 13 13 13 12 12 12 13 13 13 13 13 13 14 14 15 16 17 18 19 19 19 19 20 20 20 20 20 20 20 21 21 20 19 17 16 14 11 9 8 8 9 11 14 14 13 14 16 16 16 17 18 19 19 18 18 18 18 18 20 21 21
25 25 24 23 23 22 22 22 20 20 19 17 17 17 18 18 17 17 17 16 15 15 15 14 14 14 13 13 13 13 13 14 14 14 14 15 15 16 16 17 18 19 20 20 20 20 20 19 18 16 15 15 15 16 17 18 17 15 12 11 12 12 8 7 9 11 13 14 14 14 15 15 15 16 16 17 17 17 17 17 17 18 20 20 21
27 27 24 23 23 22 22 22 20 20 19 18 17 17 18 18 18 17 16 16 16 16 16 15 14 14 14 14 15 14 14 14 15 15 16 16 16 17 18 19 19 20 20 19 18 18 17 16 14 12 11 10 11 12 14 15 15 14 12 10 9 8 9 14 14 11 10 13 13 13 15 17 16 15 16 16 16 17 16 16 16 17 18 19 19
27 26 24 23 23 22 22 21 21 20 19 18 18 18 19 19 19 18 18 18 17 16 15 14 14 14 15 16 16 15 15 15 15 16 16 16 17 17 18 18 18 18 17 16 15 14 13 12 10 9 9 8 8 9 11 12 13 14 13 11 9 8 12 17 15 12 13 12 10 12 16 17 17 16 17 18 18 18 18 17 17 18 18 19 19
27 26 23 22 22 21 21 21 21 20 19 19 19 19 19 18 17 17 17 17 16 16 16 15 15 16 17 17 16 16 16 16 15 16 16 16 16 17 17 16 15 14 13 12 11 10 9 8 8 8 8 8 8 9 9 9 10 11 11 11 11 11 13 14 14 16 18 15 14 15 16 15 16 18 19 20 21 21 20 20 19 19 20 20 21
27 25 23 22 22 21 21 21 21 20 20 21 20 19 19 17 16 16 16 16 16 16 16 17 17 16 17 17 16 16 16 15 15 15 16 16 16 15 14 12 11 10 8 7 7 7 7 7 7 7 8 8 8 8 7 7 7 8 8 9 10 10 11 12 14 15 16 19 20 19 18 16 17 18 19 22 23 23 23 22 22 22 22 22 22
26 25 23 22 21 21 21 21 21 22 22 21 20 19 18 17 16 16 16 17 17 17 17 17 17 17 16 16 16 16 15 14 13 13 14 13 12 11 9 8 7 5 4 4 4 5 6 6 7 7 7 7 7 7 6 6 5 6 6 7 8 8 9 9 10 11 13 17 19 21 23 23 21 20 21 22 23 23 23 23 24 23 23 23 22
26 25 23 22 22 22 22 22 23 23 22 21 20 19 18 17 17 17 17 18 18 18 17 16 17 17 16 16 16 14 13 13 13 12 11 8 7 6 5 4 3 2 2 3 3 4 5 5 6 7 7 7 7 7 7 7 7 7 7 7 8 8 8 8 9 10 12 14 16 19 22 23 24 24 24 23 23 23 23 23 24 24 24 24 24
26 25 22 22 23 23 23 23 23 23 22 21 20 20 19 18 17 18 18 18 17 17 17 17 17 16 15 15 14 12 12 12 13 11 8 5 3 2 2 2 1 1 1 2 3 4 5 5 6 6 6 7 7 8 8 9 9 9 10 11 12 12 11 11 12 13 13 14 15 17 19 20 22 23 24 25 23 22 21 21 23 24 25 25 26
Wind_Direction
163 165 167 158 154 150 148 148 150 153 151 148 145 143 142 139 137 135 135 136 136 134 130 125 119 116 113 110 106 104 102 101 101 103 104 105 103 90 71 58 50 43 43 50 55 65 84 100 111 113 107 104 106 110 115 116 115 113 111 108 107 105 100 94 91 87 83 78 75 77 76 74 72 67 64 60 54 52 49 45 43 43 42 42 40
157 162 165 156 152 149 149 150 152 155 151 149 146 145 144 142 139 138 138 137 139 136 134 130 124 119 114 110 107 105 103 103 102 103 104 103 97 80 65 56 52 47 44 45 54 68 89 106 115 115 108 108 112 115 116 115 113 112 110 109 107 103 98 93 90 87 85 82 75 70 65 61 60 58 55 54 53 52 47 44 42 40 41 42 39
153 159 161 154 151 149 150 152 155 155 152 150 146 148 146 144 141 140 141 140 142 139 137 132 127 121 114 110 108 105 104 104 104 104 103 99 91 76 65 58 52 50 44 42 55 75 96 109 114 113 110 112 114 115 114 113 114 112 111 109 106 101 98 94 90 88 85 79 73 67 60 52 45 46 48 48 50 51 46 42 40 37 37 39 38
152 157 159 153 150 150 152 154 156 155 152 150 148 149 147 145 143 143 145 145 145 142 138 132 128 121 115 112 109 106 104 106 106 105 103 97 88 76 65 55 48 45 40 42 59 81 102 112 114 113 113 115 114 114 114 114 113 112 111 108 106 102 99 95 92 88 83 75 69 62 54 47 36 35 40 42 44 46 43 38 35 33 32 32 32
153 156 159 155 151 151 152 155 155 155 153 151 150 149 148 147 146 147 148 149 147 143 138 132 129 122 117 114 109 107 105 107 106 105 103 96 89 76 65 55 51 45 32 40 63 87 108 113 114 116 117 117 115 114 113 113 112 112 110 108 105 103 100 94 91 86 80 72 65 59 50 44 38 36 34 31 32 37 39 34 30 28 27 26 25
158 157 160 157 153 152 153 156 155 156 154 152 151 150 150 149 149 149 151 151 149 144 139 133 128 123 118 113 110 107 106 107 105 104 101 95 89 81 72 57 52 33 24 41 69 94 112 115 117 120 119 118 116 115 114 113 112 112 110 108 107 103 99 93 89 83 77 69 62 56 48 41 36 33 31 25 24 27 31 29 25 23 23 21 19
162 161 163 162 157 154 154 155 156 156 154 153 152 152 151 151 151 152 154 153 150 146 140 134 129 123 117 113 109 104 104 105 103 99 93 90 87 90 83 62 50 14 29 57 77 100 117 119 122 124 122 121 119 118 116 114 113 111 110 108 107 103 98 93 88 80 73 67 59 52 44 37 30 26 25 22 20 20 22 21 19 18 18 16 13
166 167 167 165 161 157 156 156 156 156 155 154 153 153 152 153 153 154 155 153 151 146 141 135 130 124 119 114 109 102 100 100 99 94 80 75 76 91 99 77 53 10 42 76 87 107 121 124 127 127 126 125 124 122 119 117 114 112 111 108 106 103 99 93 86 77 70 65 56 49 42 34 27 21 18 17 16 15 14 13 12 12 12 11 7
168 169 169 167 163 159 158 157 157 156 156 155 154 154 153 154 155 156 156 155 151 145 141 137 131 126 120 113 107 102 97 94 87 80 58 50 44 36 71 79 44 28 76 95 99 114 125 128 130 129 129 128 127 126 123 120 118 115 112 109 105 100 96 90 82 73 66 62 52 45 39 32 25 19 15 13 12 10 9 7 5 5 6 6 1
167 167 168 168 164 160 159 157 158 157 157 156 156 155 155 156 156 158 157 154 149 144 141 137 132 125 119 108 101 97 86 79 56 46 52 54 58 64 67 65 84 93 105 109 109 120 128 131 132 132 132 131 131 130 127 124 121 118 114 109 102 91 89 86 77 67 61 54 47 42 35 29 23 17 12 9 7 6 5 1 359 359 0 0 358
165 166 167 167 162 159 159 158 158 158 158 157 157 156 157 158 158 158 156 153 147 144 141 135 130 120 111 98 83 76 66 63 58 56 59 61 62 65 70 74 96 108 117 118 118 126 131 133 135 135 136 136 135 134 131 128 125 122 119 112 98 80 77 77 71 61 55 47 42 41 34 25 19 14 10 6 2 1 360 357 354 354 356 356 354
165 167 167 167 162 159 160 159 160 159 159 159 158 158 158 159 160 159 154 150 147 145 138 129 122 110 95 84 72 70 70 70 71 67 63 63 66 67 72 77 97 113 126 126 125 132 134 136 139 140 142 141 141 139 137 134 131 128 122 113 92 59 41 44 50 49 45 43 42 40 32 24 14 10 9 4 359 357 356 354 353 352 353 353 352
165 168 169 168 162 160 161 160 161 160 161 160 160 159 159 161 159 156 150 148 147 142 132 121 111 97 84 78 74 77 81 84 79 75 72 71 72 73 73 80 96 116 132 131 129 134 136 139 142 146 148 148 147 145 144 142 139 135 127 115 85 27 3 9 22 27 32 35 37 36 30 22 12 8 9 7 4 0 357 354 353 352 351 353 352
166 169 169 168 164 161 161 161 161 162 162 162 162 161 162 161 157 153 150 149 145 137 124 115 106 93 85 81 81 88 90 91 86 82 82 82 80 78 77 82 94 115 134 134 132 134 137 139 142 148 151 152 151 150 150 149 145 139 134 126 112 348 339 351 5 10 18 21 22 26 25 18 11 8 6 4 4 3 360 356 354 353 353 356 355
169 168 168 168 165 162 161 162 163 164 165 164 163 164 163 159 156 155 152 149 141 134 123 114 105 92 87 86 91 97 96 92 89 86 84 84 81 79 81 86 95 115 136 136 134 134 135 137 139 144 148 151 151 153 155 154 154 149 148 150 176 244 312 330 347 355 2 10 11 17 20 12 8 6 359 356 357 358 358 356 354 354 355 357 358
169 168 168 168 166 163 162 165 166 166 167 166 165 164 162 160 158 157 153 149 141 135 127 114 103 93 92 93 100 101 99 96 90 86 83 83 79 77 80 88 100 117 136 138 135 136 136 137 138 142 146 151 154 159 163 165 166 164 164 173 200 236 286 312 328 340 352 2 2 5 11 5 360 358 355 353 353 353 354 354 353 354 357 355 354
167 167 168 168 167 165 166 166 167 168 169 167 166 165 163 164 161 157 154 152 147 143 133 117 107 101 101 101 107 107 103 101 96 90 85 86 83 81 83 90 103 118 135 138 136 138 138 139 140 143 148 153 160 166 173 177 178 179 184 196 212 235 264 294 312 329 341 347 347 350 357 356 351 350 351 350 349 349 351 352 350 349 350 349 348
165 167 169 170 169 168 168 167 169 170 171 169 169 168 167 167 161 159 157 157 155 151 142 126 120 114 112 113 114 111 106 102 97 92 87 88 88 86 90 97 107 119 133 138 137 139 142 145 145 147 151 156 163 168 177 184 191 200 208 215 218 229 252 280 301 319 330 332 334 337 346 349 344 343 347 346 343 345 346 347 345 341 340 342 345
166 169 171 172 172 170 170 170 172 172 173 172 172 171 169 167 163 163 163 162 160 155 149 137 133 126 122 123 118 110 106 104 98 93 89 89 89 88 91 103 115 121 131 136 137 140 144 149 151 152 156 160 166 171 179 188 201 209 208 213 219 231 248 271 299 318 326 332 336 336 344 348 343 341 342 341 340 341 343 343 343 341 340 342 345
169 171 172 174 174 173 174 173 173 175 176 174 174 173 170 168 167 168 167 163 160 157 151 140 138 133 130 129 122 113 108 106 102 96 93 89 88 89 91 102 117 126 132 138 140 143 148 150 152 154 158 163 167 172 178 183 188 189 199 217 229 239 249 268 297 313 320 324 331 337 343 347 346 341 339 339 339 339 341 341 342 343 344 345 346
171 171 173 175 176 176 176 173 174 177 178 177 176 173 170 172 173 172 168 165 162 156 148 141 141 135 135 135 128 121 114 109 106 101 97 91 87 89 92 99 112 127 134 139 145 146 152 156 153 154 160 169 171 168 165 166 168 170 194 226 238 244 252 273 296 310 316 316 319 329 338 345 345 339 337 336 336 337 338 339 340 343 345 346 346
170 169 172 175 176 175 174 174 176 178 180 180 178 173 173 176 176 173 169 166 162 157 153 148 145 138 134 138 136 130 121 113 108 105 102 98 96 95 96 102 110 122 135 144 152 159 168 181 179 170 174 182 180 176 170 162 166 173 186 253 254 247 251 274 301 311 316 315 317 323 331 340 341 337 334 333 334 336 339 339 338 339 342 342 342
172 170 171 173 175 174 173 176 177 179 182 182 179 176 177 177 173 171 169 167 164 161 159 154 150 144 139 136 138 136 128 120 116 112 110 109 107 108 107 110 117 123 134 145 155 165 173 187 186 177 175 169 174 187 197 203 211 220 303 341 326 296 277 287 306 313 314 314 319 323 327 333 335 333 332 332 333 335 339 338 336 336 336 337 336
176 174 173 174 175 174 174 175 177 180 182 182 179 178 178 174 169 168 166 164 165 164 160 155 153 152 150 145 143 142 136 132 131 121 118 121 115 119 126 121 129 134 136 144 154 164 165 170 167 166 168 163 169 193 213 232 245 262 322 338 329 313 300 295 301 307 310 314 319 323 323 326 329 330 330 330 330 332 334 334 334 334 333 334 331
179 178 178 177 175 176 177 175 178 182 184 183 181 180 178 172 168 166 163 164 165 165 161 157 154 152 155 152 150 148 144 140 138 137 132 130 122 123 138 134 138 148 148 148 157 170 172 171 169 174 181 194 210 225 240 249 255 270 308 326 328 324 318 311 309 311 310 310 312 316 318 321 326 326 326 325 326 327 328 330 333 333 332 331 330
182 183 182 179 177 177 177 177 178 182 185 186 185 182 179 173 169 169 168 170 169 167 165 161 156 153 157 158 158 156 153 149 140 153 149 133 130 135 148 146 146 167 172 161 163 182 189 191 194 201 211 223 239 254 262 266 268 276 301 317 322 322 323 323 322 321 315 313 313 315 318 320 322 321 321 322 321 322 326 332 332 330 330 328 328
186 186 184 182 179 177 178 179 179 182 185 188 190 184 179 174 170 172 175 180 178 176 174 169 164 158 164 166 160 156 155 157 137 149 158 153 160 164 162 164 171 188 188 183 189 204 209 213 216 221 229 237 247 260 267 275 280 288 303 311 314 315 317 322 323 321 316 313 313 316 318 318 318 318 320 321 319 321 330 333 329 329 329 327 326
188 187 186 184 179 178 179 180 182 184 186 189 190 184 179 176 173 174 178 185 188 190 193 189 182 175 179 180 167 153 202 249 252 144 184 197 184 179 188 188 196 209 205 201 198 197 205 214 222 229 238 249 263 278 281 286 294 301 306 306 308 311 313 317 320 318 313 311 312 315 318 319 318 317 316 317 319 322 330 331 327 327 326 325 324
191 188 187 185 180 179 179 180 183 185 187 189 186 183 181 178 176 176 181 187 190 196 204 202 197 191 193 199 210 245 244 244 248 232 231 222 189 182 196 190 210 227 224 231 223 211 218 224 231 236 251 278 293 295 293 296 302 303 303 303 304 307 309 312 313 310 307 308 311 315 318 318 316 313 310 312 317 321 329 328 323 322 320 321 320
194 190 186 184 180 179 179 178 183 185 188 187 184 182 181 181 179 180 186 189 192 198 201 200 198 197 210 227 245 246 234 227 221 218 226 229 205 194 208 207 235 248 246 258 265 269 275 281 284 282 287 297 301 296 294 295 297 298 298 300 300 301 302 304 305 301 299 302 308 314 316 317 315 312 308 308 313 319 326 324 323 326 323 321 321
194 189 184 183 180 179 177 176 181 184 186 186 183 180 180 183 185 187 190 192 197 201 197 195 196 212 234 240 246 243 237 233 228 223 218 218 219 211 213 218 239 253 260 273 280 284 286 293 294 297 299 297 297 294 293 293 295 298 298 299 299 298 298 299 301 299 299 303 308 313 315 317 317 315 311 309 311 316 320 321 324 329 329 328 327
192 187 181 182 181 179 177 176 180 181 184 186 181 177 179 184 190 193 194 196 200 200 198 199 218 244 245 243 242 237 234 237 235 227 214 213 223 220 218 219 229 246 258 267 269 275 282 294 296 299 302 299 298 295 296 299 301 304 304 305 305 304 304 304 304 302 304 307 310 313 315 318 319 317 314 312 314 316 321 323 325 326 330 333 330
188 183 182 185 184 182 179 179 180 178 180 182 177 176 179 185 192 196 196 201 203 202 208 221 247 252 245 242 241 234 230 234 231 222 210 210 223 224 222 216 218 237 252 264 272 282 292 298 296 296 298 296 296 295 298 302 304 306 307 308 308 310 310 308 306 304 304 306 308 309 310 312 311 310 308 308 310 311 316 315 312 311 313 320 321
188 185 187 189 189 186 183 182 180 177 175 175 175 175 179 184 188 193 202 215 212 211 222 234 250 251 246 244 240 231 223 222 219 217 211 209 222 228 228 223 232 254 270 286 290 295 297 294 292 293 295 295 296 297 299 302 303 305 307 310 310 309 308 307 308 308 306 302 301 297 291 291 294 297 298 300 301 298 299 294 292 295 297 304 307
190 190 191 192 191 188 185 185 182 179 178 176 176 177 180 184 188 198 215 228 223 220 227 235 246 251 250 245 234 223 214 213 212 214 214 212 220 232 241 247 259 275 287 295 295 295 293 289 288 289 292 293 296 299 302 303 304 305 308 311 309 306 303 305 307 306 303 296 289 282 277 280 283 287 291 294 297 295 294 289 290 293 292 295 299
193 195 195 194 193 191 189 189 185 182 183 183 182 184 186 194 203 214 224 232 227 224 230 236 244 246 246 239 228 218 212 214 215 215 217 217 222 235 252 263 271 282 291 295 294 293 292 292 291 291 292 293 295 299 302 303 304 305 307 310 307 304 303 302 302 301 297 288 276 269 269 273 277 284 289 292 293 292 292 291 292 296 296 297 299
195 198 198 196 195 196 194 193 191 188 189 190 191 194 198 208 216 220 226 231 228 229 235 237 237 235 235 235 229 223 217 217 220 219 219 220 231 246 258 267 274 280 285 290 293 294 296 298 299 299 299 299 299 299 302 303 304 304 304 308 307 303 302 301 301 299 295 284 271 267 269 274 282 290 295 296 295 293 292 293 296 299 302 305 306
195 199 200 199 198 198 196 197 199 196 197 198 200 204 207 210 214 217 223 227 227 230 235 234 231 227 229 233 233 232 229 225 226 226 226 233 247 255 261 268 275 279 283 288 291 294 298 301 302 303 302 301 300 299 302 303 303 303 302 306 306 303 301 300 299 299 294 285 276 272 274 280 289 299 304 305 303 300 298 297 299 303 305 307 309
195 198 200 198 198 198 198 201 204 204 204 204 207 209 208 207 209 213 218 222 224 225 227 227 226 226 226 228 231 232 232 232 234 237 242 251 259 263 267 274 281 286 290 291 292 296 299 300 300 301 301 300 301 302 304 306 306 306 306 307 304 300 297 294 293 292 291 286 280 278 279 285 293 302 308 309 311 310 307 304 303 305 307 309 310
195 197 197 198 200 200 200 203 206 209 208 206 211 211 206 206 207 211 215 217 219 219 219 221 222 223 223 224 226 228 231 235 242 249 255 262 265 269 273 280 286 288 289 288 289 294 297 298 298 298 299 300 302 303 304 306 307 307 306 306 299 291 287 285 285 284 284 282 281 282 284 287 294 300 305 309 312 312 311 310 308 306 305 306 307
195 196 198 200 201 202 205 206 208 212 211 211 215 212 205 205 206 209 212 212 214 216 216 216 218 218 217 219 223 228 235 243 250 256 262 267 270 275 281 285 288 289 289 290 292 297 299 300 300 299 300 300 301 301 302 304 305 304 303 301 292 284 275 270 272 274 275 278 283 289 293 295 298 300 305 307 308 307 307 308 309 306 302 301 302
193 195 198 200 201 205 209 211 212 214 213 216 219 211 204 205 206 207 208 208 209 212 213 212 213 214 212 216 224 232 241 248 252 257 264 270 275 281 286 288 292 294 296 298 300 302 302 300 300 301 301 300 301 301 302 304 305 306 306 303 296 285 272 258 259 267 271 278 287 296 302 305 306 306 307 307 305 304 303 303 305 303 299 298 298
195 195 197 200 204 208 211 213 217 218 215 216 215 209 202 203 207 207 206 207 206 207 211 209 209 213 216 220 230 241 249 254 256 262 269 275 279 284 287 290 293 296 297 299 301 303 302 301 302 302 300 299 300 300 302 304 306 309 310 308 303 296 278 244 244 271 281 284 291 300 306 312 315 314 313 311 309 308 307 304 303 301 297 296 296
198 198 198 203 208 210 213 215 217 218 215 211 208 208 204 200 204 205 205 208 206 205 207 207 211 218 225 234 243 250 256 259 263 269 273 277 282 285 288 291 293 294 296 298 302 304 303 304 305 305 303 301 301 301 303 305 307 312 316 313 308 305 294 268 276 294 291 289 298 306 315 324 329 327 324 323 321 321 320 315 309 304 300 300 298
199 200 202 205 207 210 213 214 215 214 210 207 204 205 205 200 199 199 200 203 204 204 205 209 216 224 233 246 254 255 257 261 264 268 272 277 281 286 288 291 293 295 298 300 303 304 304 306 308 307 306 303 302 304 305 307 310 316 321 323 317 309 306 308 313 311 298 300 308 317 330 337 340 341 338 336 335 334 331 327 323 315 312 312 308
201 202 205 208 208 209 211 212 213 210 206 204 201 204 207 206 203 202 201 202 202 203 207 216 226 232 239 248 254 254 256 259 262 267 273 277 280 284 287 291 295 297 300 302 303 303 304 306 308 308 309 309 312 312 312 313 316 320 324 328 329 319 314 317 320 317 313 315 317 324 333 338 343 348 346 342 341 341 339 336 333 328 326 324 319
201 202 206 209 208 208 210 210 209 207 204 201 200 204 209 211 210 209 208 207 208 209 212 221 230 237 241 245 248 252 256 260 266 269 271 276 281 286 290 294 296 298 300 302 303 304 306 309 312 315 320 326 329 327 324 324 323 326 329 331 332 328 326 326 328 327 325 323 323 327 331 340 349 349 347 347 345 344 343 340 338 336 334 332 327
200 202 207 208 207 207 210 210 206 204 203 201 203 207 211 213 210 209 208 210 217 222 221 224 230 235 239 242 246 252 260 266 269 271 275 281 285 288 292 295 295 297 300 304 307 310 312 317 322 327 332 335 336 334 333 333 330 333 337 337 337 334 333 334 333 334 329 322 321 325 331 340 352 353 350 350 348 345 344 343 342 340 338 336 333
200 205 208 206 206 208 209 207 202 201 202 202 204 207 211 214 209 207 207 209 217 226 230 233 234 235 238 244 252 260 270 274 274 281 290 292 289 288 290 290 290 296 307 315 316 319 322 326 330 334 336 336 338 339 340 347 353 353 347 342 343 338 335 336 334 334 334 331 329 330 333 335 342 352 354 351 349 346 345 344 344 343 341 339 338
202 208 208 203 203 204 204 201 198 199 201 202 205 206 206 207 208 209 211 214 218 224 232 238 240 241 243 248 258 268 277 283 288 300 308 299 286 283 280 277 280 296 319 321 324 331 333 337 339 340 341 342 346 350 353 1 7 5 358 352 351 348 344 341 339 341 345 344 338 334 336 335 335 343 350 350 350 348 345 343 342 342 343 344 342
203 209 207 200 199 200 199 197 197 199 202 203 204 205 204 204 209 213 217 222 224 228 234 241 245 246 246 250 260 269 278 292 304 313 312 295 276 258 242 242 249 290 324 328 338 343 343 346 348 348 349 350 356 359 359 3 2 359 357 358 359 359 359 357 355 355 352 350 346 339 337 337 336 339 344 347 349 348 345 343 342 342 343 344 344